Vorticity
9 8 -0 22 12 10 2 1 -1 4 6 7 1 7 6 8 5 3 11 11 14 5 3 17 15 17 10 8 13 11 8 10 10 9 8 8 7 7 7 7 6 5 5 5
6 1 11 12 1 -3 -1 9 4 14 14 11 16 1 0 9 14 20 17 16 9 20 5 6 9 12 17 16 16 12 8 11 10 7 6 7 7 6 7 7 7 6 5 4
6 -15 -7 4 18 23 18 12 6 2 9 5 22 23 36 35 6 16 -20 8 2 20 13 16 16 4 4 12 14 13 9 11 9 7 7 7 8 8 7 7 7 6 5 5
25 24 7 10 5 10 5 16 8 8 15 3 2 -2 -4 -7 7 8 29 3 38 9 15 14 2 -4 6 16 17 13 8 9 8 6 8 7 7 6 7 7 7 6 6 5
-20 2 7 14 13 11 -1 3 2 5 8 11 16 9 16 -9 2 0 7 22 4 3 11 18 -9 -5 7 18 15 12 8 8 7 7 7 7 6 6 7 7 7 7 7 6
4 -10 -6 9 -0 12 -4 12 16 16 20 33 15 -17 41 22 19 39 15 1 8 -7 8 10 -9 -2 13 19 14 10 7 6 8 7 6 7 7 6 8 7 7 7 7 7
28 19 21 14 14 19 15 12 19 14 4 -8 18 28 -26 -12 -7 -9 7 10 14 -6 5 -3 4 7 14 14 18 13 8 6 7 8 7 7 7 7 7 7 6 7 6 6
10 26 12 9 12 -8 20 15 -27 10 3 -10 22 4 -23 6 9 12 7 3 -0 5 9 8 15 18 11 13 15 14 9 7 7 8 7 7 7 7 7 8 6 6 4 3
7 13 14 12 16 20 14 5 11 26 27 37 6 -13 2 10 8 20 26 15 13 8 12 7 12 16 10 13 14 13 10 6 7 7 6 8 7 6 7 9 6 9 5 -1
15 34 29 19 30 19 -17 -4 15 16 13 6 15 -1 -19 -11 10 6 27 15 23 10 9 4 11 10 -1 11 18 15 13 9 9 7 8 6 6 6 7 8 5 8 5 0
-12 6 -8 3 14 0 16 10 11 8 3 -5 10 11 27 5 8 4 -0 12 -2 5 -9 -3 18 11 0 8 4 9 13 13 11 11 7 9 7 5 6 6 5 7 0 -7
-2 -7 7 -3 -1 21 20 4 7 -26 24 8 -4 11 -6 -5 5 4 19 15 6 -9 6 15 13 3 15 1 3 13 5 10 16 10 8 8 10 9 7 7 6 3 -4 -0
16 30 29 54 52 49 11 26 9 7 -2 3 -16 -0 -1 -7 -3 -14 -2 17 4 6 9 11 1 6 -2 -2 16 6 5 6 5 13 10 9 7 5 10 9 9 5 8 14
-8 24 -18 -25 -46 -55 -4 -5 -10 -3 29 12 9 15 26 16 19 -6 -21 6 2 27 9 11 5 6 10 17 9 -7 7 12 11 11 11 11 10 11 15 8 4 17 16 13
9 20 -9 20 22 18 20 13 24 21 22 27 36 29 29 36 37 26 12 -2 17 16 15 7 3 9 17 15 6 10 16 10 8 12 15 16 18 19 15 12 20 18 15 15
19 13 18 -1 36 37 16 34 32 19 24 8 18 17 -5 17 21 14 35 41 42 40 21 21 21 21 24 25 22 21 22 20 23 20 21 16 21 19 18 16 17 16 18 18
1 19 -7 7 14 9 53 14 38 -4 11 23 31 21 21 12 -12 5 19 24 25 21 20 17 20 28 22 21 21 17 13 14 19 18 17 15 15 16 17 19 15 12 8 6
18 17 24 2 45 43 28 1 6 32 -11 3 1 6 11 13 9 8 7 12 13 16 20 24 24 20 20 16 18 18 16 14 15 16 15 14 13 13 11 10 10 8 8 8
17 21 18 11 17 24 8 -3 7 33 1 -7 -4 7 8 15 17 15 12 11 11 10 9 11 12 12 14 15 13 14 14 15 14 12 11 12 10 8 7 7 6 5 7 8
13 34 25 16 10 19 -31 -2 14 6 4 -16 1 11 16 13 12 12 13 10 9 8 8 9 10 11 10 11 12 12 11 11 12 11 9 9 8 7 8 8 8 8 7 7
9 21 9 12 25 12 -26 2 20 28 -19 1 11 13 10 11 10 7 7 9 9 10 11 11 11 11 11 10 10 10 10 9 8 8 9 9 12 8 10 9 9 9 10 10
7 24 10 16 12 7 -38 24 47 2 10 10 8 9 10 9 9 10 10 9 9 9 9 9 9 9 9 9 10 10 11 13 13 12 13 10 9 9 9 10 10 9 10 9
9 8 3 10 -11 -2 8 18 9 7 10 9 11 10 10 10 9 9 10 11 12 12 12 13 11 11 12 12 12 11 11 9 8 9 10 9 9 9 9 9 9 8 7 7
14 0 8 25 12 7 22 -1 12 9 9 9 10 12 12 12 11 10 8 8 8 7 8 7 8 7 9 8 8 8 9 8 8 9 9 9 8 8 7 7 6 6 7 6
15 16 14 15 11 25 -1 8 7 11 9 9 7 5 5 5 5 5 6 6 6 6 6 6 6 7 7 7 7 7 6 6 6 6 6 6 6 6 6 6 6 7 7 7
16 11 13 2 7 9 13 9 8 6 5 5 5 6 6 6 5 6 5 6 6 6 6 7 7 7 8 8 8 9 8 8 8 8 9 8 8 8 8 8 8 8 8 8
Height
3086 3086 3082 3086 3086 3085 3085 3084 3082 3082 3080 3075 3073 3068 3067 3069 3067 3066 3065 3064 3063 3062 3063 3061 3061 3061 3061 3061 3061 3063 3065 3067 3068 3070 3072 3073 3074 3076 3078 3079 3080 3082 3083 3084
3081 3077 3080 3081 3080 3080 3079 3078 3077 3077 3075 3070 3067 3060 3059 3059 3057 3056 3057 3055 3054 3055 3055 3054 3055 3055 3055 3055 3056 3057 3059 3061 3062 3064 3066 3067 3069 3071 3072 3074 3075 3077 3079 3080
3074 3076 3074 3075 3074 3074 3073 3073 3073 3074 3070 3064 3060 3050 3050 3049 3049 3049 3049 3049 3048 3048 3048 3048 3049 3050 3050 3050 3050 3051 3053 3055 3057 3058 3060 3062 3064 3065 3067 3069 3071 3072 3074 3076
3068 3068 3067 3068 3068 3070 3067 3070 3068 3066 3066 3063 3059 3040 3045 3046 3044 3041 3041 3041 3041 3042 3043 3043 3044 3044 3043 3043 3044 3045 3047 3049 3050 3051 3054 3056 3058 3060 3062 3063 3065 3067 3069 3071
3063 3062 3062 3062 3062 3064 3063 3062 3062 3061 3060 3058 3057 3055 3033 3036 3036 3038 3036 3036 3036 3037 3038 3038 3038 3037 3037 3036 3037 3039 3040 3042 3044 3045 3048 3050 3051 3053 3055 3057 3059 3061 3063 3064
3057 3056 3058 3058 3057 3058 3055 3057 3057 3056 3056 3049 3046 3048 3024 3031 3029 3030 3030 3031 3032 3033 3034 3033 3033 3031 3030 3030 3031 3032 3033 3036 3038 3039 3041 3043 3044 3045 3048 3050 3052 3054 3056 3057
3053 3050 3051 3052 3052 3050 3050 3053 3053 3049 3049 3036 3033 3033 3023 3026 3025 3027 3026 3027 3027 3028 3028 3028 3027 3025 3024 3024 3025 3026 3027 3029 3031 3033 3034 3036 3037 3039 3041 3042 3044 3046 3048 3050
3047 3046 3043 3043 3042 3044 3040 3044 3042 3034 3029 3025 3027 3022 3018 3018 3019 3021 3022 3022 3023 3023 3022 3022 3021 3019 3018 3018 3019 3020 3021 3022 3024 3025 3027 3028 3029 3031 3033 3035 3036 3037 3039 3041
3042 3036 3036 3035 3035 3038 3035 3035 3037 3034 3028 3026 3018 3011 3014 3010 3011 3013 3014 3015 3015 3014 3014 3015 3014 3013 3013 3012 3013 3013 3014 3014 3016 3017 3018 3020 3021 3022 3024 3026 3027 3028 3031 3033
3035 3030 3031 3027 3029 3028 3028 3030 3030 3031 3024 3016 3005 3008 3005 3007 3005 3006 3007 3008 3008 3008 3009 3009 3009 3008 3007 3006 3006 3006 3007 3007 3008 3009 3010 3011 3012 3013 3015 3016 3017 3019 3020 3021
3030 3028 3020 3021 3018 3022 3021 3019 3020 3020 3015 3008 3003 2996 3003 3002 3002 3001 3002 3003 3002 3003 3003 3003 3002 3001 3000 3000 2999 2999 3000 3000 3000 3001 3001 3002 3003 3003 3004 3005 3006 3007 3007 3009
3024 3018 3010 3011 3015 3012 3012 3010 3013 3010 3002 3004 2997 2987 3001 3003 2997 2998 2997 2994 2994 2995 2996 2996 2995 2994 2994 2993 2992 2992 2990 2991 2991 2991 2991 2992 2993 2993 2993 2994 2994 2994 2995 2996
3013 3008 3006 2997 3003 3004 2999 3000 3001 3001 2998 2991 2993 2976 2997 2997 2986 2985 2985 2987 2987 2985 2986 2987 2986 2985 2985 2984 2984 2982 2982 2981 2981 2980 2981 2981 2981 2981 2981 2982 2982 2982 2983 2983
3004 2999 2999 2993 2992 2994 2994 2994 2994 2993 2989 2982 2978 2976 2986 2978 2975 2974 2974 2974 2973 2972 2973 2973 2972 2972 2972 2971 2970 2969 2969 2969 2969 2969 2968 2969 2968 2968 2968 2968 2969 2970 2969 2971
3000 2993 2991 2988 2986 2986 2985 2983 2980 2978 2978 2975 2973 2973 2966 2965 2962 2960 2961 2963 2959 2958 2958 2959 2959 2958 2957 2956 2955 2954 2955 2954 2955 2955 2955 2955 2955 2955 2954 2955 2956 2958 2959 2961
2994 2985 2985 2977 2979 2980 2977 2970 2968 2968 2967 2965 2965 2960 2960 2959 2956 2953 2951 2951 2949 2946 2945 2944 2944 2943 2943 2943 2942 2941 2941 2941 2942 2941 2942 2943 2944 2945 2945 2944 2945 2948 2950 2954
2987 2984 2982 2968 2972 2973 2971 2966 2965 2965 2964 2963 2962 2961 2958 2955 2951 2948 2943 2943 2941 2939 2934 2934 2934 2932 2931 2932 2932 2932 2932 2933 2933 2934 2935 2936 2937 2938 2940 2939 2939 2940 2942 2944
2980 2980 2978 2968 2967 2963 2971 2969 2967 2965 2964 2964 2964 2961 2958 2953 2949 2945 2942 2939 2937 2936 2932 2930 2930 2929 2926 2926 2927 2927 2927 2927 2926 2927 2927 2928 2929 2931 2933 2933 2932 2933 2934 2935
2977 2975 2973 2969 2967 2968 2970 2967 2965 2964 2965 2961 2959 2957 2955 2950 2946 2945 2942 2939 2935 2934 2931 2929 2927 2925 2923 2922 2921 2920 2920 2919 2919 2919 2919 2919 2921 2923 2924 2924 2925 2924 2924 2925
2977 2974 2974 2971 2968 2962 2968 2966 2964 2961 2961 2959 2954 2951 2949 2948 2946 2942 2939 2936 2933 2931 2929 2926 2925 2922 2920 2919 2918 2918 2917 2915 2914 2913 2914 2915 2916 2916 2916 2916 2916 2916 2916 2917
2973 2971 2971 2970 2967 2965 2963 2964 2961 2963 2965 2955 2953 2951 2949 2947 2944 2940 2937 2934 2931 2929 2926 2923 2921 2918 2916 2915 2914 2912 2911 2910 2910 2907 2907 2907 2908 2907 2907 2906 2908 2909 2909 2909
2975 2974 2972 2970 2969 2967 2964 2964 2966 2965 2959 2955 2953 2949 2947 2944 2941 2938 2934 2931 2927 2926 2922 2920 2918 2914 2912 2910 2909 2907 2905 2903 2901 2900 2899 2899 2900 2900 2900 2900 2900 2899 2898 2897
2977 2976 2974 2975 2971 2967 2963 2962 2960 2958 2956 2953 2951 2947 2943 2940 2937 2933 2931 2928 2925 2922 2918 2914 2910 2908 2907 2904 2900 2899 2897 2896 2895 2894 2894 2891 2892 2891 2891 2890 2890 2888 2888 2887
2973 2973 2972 2971 2969 2966 2963 2961 2958 2956 2953 2951 2947 2944 2940 2937 2933 2930 2926 2922 2919 2915 2911 2908 2905 2903 2901 2898 2895 2893 2891 2888 2887 2886 2885 2884 2882 2881 2881 2879 2878 2877 2876 2875
2973 2971 2969 2968 2967 2964 2961 2959 2956 2954 2950 2947 2943 2939 2935 2931 2928 2924 2921 2917 2913 2909 2905 2901 2898 2896 2894 2890 2887 2884 2880 2878 2876 2874 2874 2873 2870 2868 2867 2866 2864 2863 2862 2861
2971 2969 2968 2967 2965 2963 2961 2957 2953 2950 2946 2942 2938 2936 2932 2925 2920 2916 2912 2908 2903 2898 2895 2891 2887 2884 2882 2879 2875 2872 2868 2864 2863 2862 2860 2857 2855 2853 2852 2851 2850 2849 2847 2845